Location: Jaite
(41.2884°N, 81.5737°W)
Time: 12:20:12
(UTC+00:00)

CZ-2C R/B - Pass Details

Date: 15 November 2025
Orbit: 664 x 773 km, 98.4° (Epoch: 06 December)

Event Time Altitude Azimuth Distance (km) Brightness Sun altitude
Rises 09:53:22 0° 9° (N) 3,224 5.8 -26.5°
Reaches altitude 10° 09:55:41 10° 5° (N) 2,306 5.0 -26.1°
Enters shadow 09:58:20 31° 354° (N) 1,338 3.6 -25.6°
